#timestamp,LO_Frequency,Hit,StdDev 
1457179215.2,286047012.5,N
1457179235.0,286047017.2,N
1457179235.9,286047017.2,N
1457179255.8,286047013.6,N
1457179275.6,286047012.2,N
1457179295.4,286047014.6,N
1457179315.3,286047012.8,N
1457179335.1,286047015.6,N
1457179336.0,286047015.6,N
1457179355.8,286047013.7,N
1457179375.7,286047009.5,N
1457179395.5,286047012.3,N
1457179415.3,286047013.4,N
1457179435.2,286047011.2,N
1457179455.9,286047012.4,N
1457179475.7,286047008.2,N
1457179495.5,286047009.6,N
1457179515.4,286047008.8,N
1457179535.2,286047007.2,N
1457179555.0,286047007.1,N
1457179555.9,286047007.1,N
1457179575.8,286047006.4,N
1457179595.6,286047001.4,N
1457179615.4,286047004.7,N
1457179635.3,286047004.8,N
1457179655.1,286047004.8,N
1457179675.8,286047008.4,N
1457179695.7,286047003.3,N
1457179715.5,286046998.1,N
1457179735.3,286047000.4,N
1457179755.2,286047002.7,N
1457179775.9,286047000.6,N
1457179795.7,286047000.8,N
1457179815.6,286046996.9,N
1457179835.4,286046999.9,N
1457179855.2,286046999.8,N
1457179875.0,286047003.4,N
1457179876.0,286047003.4,N
1457179895.8,286047004.6,N
1457179915.6,286047005.7,N
1457179935.4,286047005.4,N
1457179955.3,286047007.4,N
1457179975.1,286047006.9,N
1457179995.8,286047008.9,N
1457180015.7,286047006.1,N
1457180035.5,286047006.3,N
1457180055.3,286047010.3,Y
1457180075.2,286047001.8,P
1457180095.9,286046998.8,N
1457180115.7,286046996.5,N
1457180135.6,286047000.0,N
1457180155.4,286046998.2,N
1457180175.2,286047000.8,N
1457180195.1,286046998.4,N
1457180196.0,286046998.4,N
1457180215.8,286046999.0,N
1457180235.6,286046999.4,N
1457180255.5,286046994.9,N
1457180275.3,286046996.1,N
1457180295.1,286046994.5,N
1457180315.8,286046994.0,N
1457180335.7,286046992.7,N
1457180355.5,286046991.5,N
1457180375.3,286046988.8,Y
1457180395.2,286046992.7,P
1457180415.0,286046990.3,P
1457180415.9,286046990.3,P
1457180435.7,286046992.1,N
1457180455.6,286046990.4,Y
1457180475.4,286046995.1,P
1457180495.2,286046995.7,P
1457180515.1,286046996.7,N
1457180516.0,286046996.7,N
1457180535.8,286046994.1,Y
1457180555.6,286046998.2,P
1457180575.5,286046999.3,N
1457180595.3,286046999.0,N
1457180615.1,286046997.0,N
1457180635.9,286046995.1,Y
1457180655.7,286046999.1,P
1457180675.5,286046996.2,P
1457180695.4,286046998.4,N
1457180715.2,286046998.7,N
1457180735.0,286046996.8,Y
1457180735.9,286046996.8,P
1457180755.8,286046998.4,N
1457180775.6,286047002.1,P
1457180795.4,286047001.0,N
1457180815.3,286046996.9,N
1457180835.1,286046996.9,N
1457180855.8,286046997.1,N
1457180875.7,286046997.8,N
1457180895.5,286046999.5,N
1457180915.3,286047002.3,N
1457180935.2,286047004.0,N
1457180955.9,286047003.3,N
1457180975.7,286047004.1,N
1457180995.6,286047002.5,N
1457181015.4,286047000.9,N
1457181035.2,286046999.7,N
1457181055.0,286047000.1,N
1457181055.9,286047000.1,N
1457181075.8,286047005.8,N
1457181095.6,286047003.4,N
1457181115.4,286047005.0,N
1457181135.3,286047004.4,N
1457181155.1,286047001.5,N
1457181175.8,286047001.9,N
1457181195.7,286047000.0,N
1457181215.5,286046998.2,N
1457181235.3,286046997.1,N
1457181255.2,286046997.4,N
1457181275.9,286046999.6,N
1457181295.7,286046995.8,N
1457181315.6,286046997.2,N
1457181335.4,286046994.0,N
1457181355.2,286046995.8,N
1457181375.0,286046996.2,N
1457181376.0,286046996.2,N
1457181395.8,286046997.3,N
1457181415.6,286046999.5,N
1457181435.4,286046999.6,N
1457181455.3,286047001.2,N
1457181475.1,286047003.3,N
1457181495.8,286047000.6,N
1457181515.7,286047000.3,N
1457181535.5,286046999.7,N
1457181555.3,286047003.9,N
1457181575.2,286047005.3,N
1457181595.9,286047007.7,N
1457181615.7,286047011.2,Y
1457181635.6,286047011.2,P
1457181655.4,286047008.1,N
1457181675.2,286047010.0,N
1457181695.1,286047012.3,N
1457181696.0,286047012.3,N
1457181715.8,286047010.3,N
1457181735.6,286047012.4,Y
1457181755.5,286046998.1,P
1457181775.3,286047002.3,N
1457181795.1,286047001.0,N
1457181815.9,286046999.7,N
1457181835.7,286047003.0,N
1457181855.5,286047003.1,N
1457181875.3,286046999.7,N
1457181895.2,286047000.6,N
1457181915.0,286047000.8,N
1457181915.9,286047000.8,N
1457181935.7,286047000.7,N
1457181955.6,286047001.9,N
1457181975.4,286047004.4,N
1457181995.2,286047003.3,N
1457182015.1,286047005.4,N
1457182016.0,286047005.4,N
1457182035.8,286047005.1,N
1457182055.6,286047009.0,Y
1457182075.5,286047007.1,P
1457182095.3,286047008.4,P
1457182115.1,286047016.7,P
1457182135.9,286047016.4,Y
1457182155.7,286047010.3,P
1457182175.5,286047007.7,P
1457182195.4,286047010.0,P
1457182215.2,286047011.7,Y
1457182235.0,286047000.0,P
1457182235.9,286047000.0,N
1457182255.8,286047002.4,N
1457182275.6,286047001.1,N
1457182295.4,286047000.2,N
1457182315.3,286047000.0,N
1457182335.1,286047003.9,N
1457182336.0,286047003.9,N
1457182355.8,286047005.9,N
1457182375.7,286047007.6,N
1457182395.5,286047005.2,N
1457182415.3,286047005.5,N
1457182435.2,286047007.0,N
1457182455.9,286047007.8,N
1457182475.7,286047015.5,Y
1457182495.6,286047011.6,P
1457182515.4,286047014.0,P
1457182535.2,286047012.7,N
1457182555.0,286047011.2,N
1457182556.0,286047011.2,Y
1457182575.8,286047000.6,P
1457182595.6,286047003.8,N
1457182615.5,286047005.6,N
1457182635.3,286047006.4,N
1457182655.1,286047002.5,N
1457182675.8,286047000.2,N
1457182695.7,286047003.1,N
1457182715.5,286047005.9,N
1457182735.3,286047001.8,N
1457182755.2,286047002.4,N
1457182775.9,286047000.8,N
1457182795.7,286047002.8,N
